Wind_Speed
15 15 14 13 12 12 11 10 10 10 9 9 9 9 10 9 9 10 11 11 12 13 13 14 13 13 13 13 12 12 11 11 12 13 13 14 15 15 15 16 17 16 15
17 17 16 16 15 14 13 13 12 12 12 11 11 11 11 11 10 10 11 12 12 13 14 15 15 15 15 15 15 14 14 13 13 14 14 14 14 15 16 17 18 18 17
20 19 19 18 18 17 16 15 15 15 14 13 13 12 12 12 12 11 12 12 13 14 14 16 16 17 17 17 17 17 17 17 16 15 15 15 15 15 16 17 19 20 20
22 21 21 20 20 19 19 18 18 17 16 15 15 14 14 14 14 13 13 13 14 14 15 16 17 17 18 19 19 19 19 19 19 18 17 17 16 16 17 18 18 20 21
23 22 22 22 22 22 21 20 20 19 18 17 16 16 15 16 15 15 15 14 14 15 16 16 17 18 19 19 20 20 21 21 21 21 20 20 19 19 18 18 19 20 21
24 23 24 24 24 24 24 23 22 21 20 19 18 17 17 17 17 17 17 16 16 16 17 17 17 18 19 19 20 21 21 21 22 22 22 22 22 21 21 20 20 21 22
26 26 26 27 26 26 26 24 23 23 23 21 20 19 19 19 19 19 19 19 18 18 18 18 18 19 19 20 21 21 22 22 22 23 23 23 23 23 22 22 21 21 22
29 28 28 29 28 28 28 26 26 25 25 24 23 22 21 21 21 21 21 21 20 20 20 20 20 20 19 21 21 22 22 23 23 23 24 24 24 24 24 23 23 23 23
31 31 30 30 31 31 29 27 26 25 25 24 24 23 23 23 23 22 22 22 22 22 22 21 21 22 21 21 22 23 23 23 23 24 24 24 24 24 24 24 24 24 23
35 34 32 31 31 32 29 28 27 26 26 25 25 24 24 24 23 23 23 23 23 23 23 24 24 24 23 22 23 24 23 23 23 24 24 24 25 25 25 25 25 25 24
37 35 35 34 32 31 29 28 29 28 27 26 26 25 24 23 23 24 23 24 24 23 23 24 24 24 23 23 24 24 24 24 23 24 24 24 25 25 25 24 25 25 25
39 38 35 34 32 29 28 26 27 28 27 26 26 24 23 23 23 23 24 24 23 23 23 23 24 24 23 22 23 24 24 24 24 24 24 24 25 25 25 24 24 25 25
40 38 35 34 31 29 28 27 26 25 25 24 24 23 23 23 23 23 23 22 22 22 22 22 23 23 23 23 24 25 25 25 25 24 24 25 25 25 25 25 25 25 25
37 35 34 32 28 27 27 27 27 26 24 23 23 22 22 23 23 23 23 22 22 22 22 22 23 23 23 23 23 24 25 25 25 25 25 25 25 26 26 26 26 25 25
32 32 29 27 26 26 26 26 25 24 23 23 22 22 22 22 23 23 23 22 22 22 23 23 23 23 24 24 23 24 25 25 25 25 25 24 24 25 26 26 26 26 26
29 26 24 25 25 25 23 22 22 21 21 22 22 22 22 22 23 23 23 23 23 22 23 23 24 23 23 24 24 25 25 26 26 26 25 25 24 24 25 25 26 25 25
21 19 20 20 21 21 20 19 19 20 21 22 23 22 22 23 23 23 24 24 24 24 23 24 24 24 23 23 23 24 25 25 26 26 26 25 25 25 25 25 25 25 25
16 16 16 17 17 17 17 18 19 20 21 22 22 23 23 24 24 24 24 24 24 24 24 24 24 24 23 23 23 22 23 25 26 26 26 25 24 24 25 25 25 25 25
10 10 11 11 12 14 16 18 19 21 21 22 22 22 23 23 23 24 24 24 24 24 24 23 23 23 23 22 22 23 23 24 25 26 26 26 25 24 24 24 25 25 25
6 7 9 11 13 15 18 19 20 20 21 21 21 22 22 22 22 22 23 23 23 23 23 22 23 23 23 22 23 23 22 22 24 25 26 26 26 25 25 25 25 25 25
8 10 12 13 15 16 17 19 19 19 20 20 21 21 21 22 22 22 22 22 22 22 23 22 22 23 23 22 22 22 22 22 23 24 26 27 26 26 26 26 26 26 25
11 12 14 15 16 16 17 18 18 19 19 20 20 21 21 21 21 21 21 21 21 22 22 22 22 22 22 22 21 21 21 20 20 22 24 25 26 27 27 28 28 28 27
13 14 15 16 16 17 18 18 19 18 19 19 20 20 20 20 20 21 21 21 21 21 21 21 21 21 21 21 20 20 20 19 19 20 21 22 24 26 27 28 29 29 29
13 14 15 15 16 17 18 18 19 20 20 20 20 19 19 19 20 20 20 20 21 20 20 20 20 20 20 20 20 19 19 19 18 19 20 21 23 25 27 29 29 30 31
13 13 14 15 16 16 17 18 18 19 20 20 19 19 19 19 20 20 19 19 18 18 18 19 19 19 19 19 19 19 18 18 18 18 18 18 19 21 23 26 27 29 31
13 13 13 13 14 15 15 16 16 17 17 18 17 18 18 19 19 19 18 17 17 17 17 17 17 17 17 18 18 17 17 17 17 18 18 18 19 20 21 21 23 26 28
Wind_Direction
268 267 268 269 272 275 278 281 284 291 293 291 288 285 284 282 280 278 278 277 276 274 273 272 272 271 270 268 264 262 260 260 258 252 249 249 246 241 240 238 237 238 241
270 267 265 266 266 267 269 275 278 283 289 289 287 286 286 285 284 284 281 279 278 276 273 271 270 268 267 266 264 262 262 261 261 259 255 255 252 247 246 243 240 240 242
271 269 266 264 263 263 265 269 272 276 280 282 284 285 285 286 288 288 285 283 281 279 276 272 270 267 265 264 263 261 261 260 259 260 259 258 257 253 250 248 245 243 243
272 270 267 264 262 262 262 265 269 271 273 274 278 283 283 283 287 289 288 285 284 283 280 275 271 268 265 263 262 261 261 260 259 258 258 259 259 257 254 251 250 247 244
274 272 269 265 261 261 261 264 266 267 269 270 273 277 279 281 285 286 287 287 285 283 280 276 273 270 268 265 263 262 262 261 259 258 258 257 258 258 257 255 253 251 247
277 274 270 267 263 259 259 261 262 264 267 269 271 274 275 278 281 283 284 284 283 281 279 277 274 271 269 267 265 264 263 261 259 258 258 257 257 256 256 257 257 253 250
277 276 273 270 267 259 256 257 259 262 263 267 268 270 272 275 277 278 281 281 280 279 275 274 273 271 269 267 265 264 263 262 260 259 257 257 256 255 255 255 256 255 253
274 273 271 268 267 263 256 255 255 258 260 263 264 266 268 271 273 274 276 277 278 278 276 274 272 270 269 267 265 263 262 261 261 260 259 257 256 255 255 254 255 255 254
279 276 275 273 268 264 258 255 255 256 258 260 261 262 265 270 272 273 274 276 278 276 275 276 274 270 269 267 265 263 262 261 261 260 259 257 256 256 255 254 254 255 255
281 280 277 275 272 266 259 254 253 255 256 258 259 262 264 267 270 270 272 274 276 277 274 276 275 272 268 264 264 263 261 260 260 259 258 257 256 256 255 254 253 254 254
280 282 280 276 275 267 257 254 253 255 255 256 259 260 261 263 267 270 273 273 274 275 274 274 274 273 270 265 263 262 260 259 259 259 258 257 256 255 255 255 253 253 254
276 279 280 277 273 266 259 254 252 253 253 256 257 259 261 264 268 271 272 273 274 272 272 273 272 272 271 266 262 262 260 258 257 258 258 256 254 254 254 255 255 254 255
273 274 275 272 269 263 257 254 253 251 253 254 256 259 262 265 267 270 271 273 274 274 273 271 271 271 269 268 264 262 259 257 256 256 257 255 253 252 253 254 255 255 256
270 271 272 267 263 258 256 254 251 252 252 251 256 260 263 265 267 269 271 272 273 274 274 273 272 272 269 268 266 262 259 256 256 256 256 255 254 252 252 253 254 255 256
270 267 265 260 257 257 253 250 248 250 250 253 257 260 263 265 268 269 271 271 272 273 274 274 274 273 271 268 267 263 258 257 256 256 255 255 254 253 252 252 253 254 256
265 260 256 256 256 250 242 240 244 248 251 255 257 260 263 265 267 269 271 271 271 272 274 275 276 276 274 270 265 262 258 257 255 254 254 254 254 254 252 252 252 253 255
259 256 251 250 247 239 236 240 245 250 253 256 259 261 262 264 266 269 270 271 272 273 273 273 276 276 274 270 264 261 259 256 254 253 254 255 255 253 252 251 251 252 253
249 245 240 241 241 239 240 245 250 254 256 258 260 262 264 265 267 269 270 271 271 272 273 273 275 275 274 273 266 263 260 257 254 253 253 253 254 253 252 251 252 253 253
236 233 237 239 243 247 250 252 256 257 259 261 263 264 264 265 267 268 268 269 270 272 274 273 272 273 274 274 269 267 267 261 254 251 250 251 252 253 253 252 252 252 253
248 250 257 258 256 257 256 255 258 260 261 262 263 263 264 266 267 268 269 269 270 272 274 273 271 271 272 275 270 267 271 265 255 250 250 251 252 252 252 252 252 252 253
273 271 271 269 266 264 263 262 262 263 263 263 263 263 265 267 267 268 269 270 270 271 273 272 271 272 271 274 273 271 272 269 258 254 251 250 252 250 250 252 252 253 253
281 277 275 273 271 268 266 266 267 267 265 265 266 267 267 268 268 268 269 270 270 270 270 271 272 273 271 272 273 273 274 267 262 259 255 252 253 252 251 251 252 252 253
290 284 280 278 274 271 270 268 268 268 267 267 267 268 269 269 268 268 269 270 270 271 270 270 271 273 272 271 272 274 273 273 267 265 263 257 254 253 251 250 251 253 254
295 290 286 283 280 277 275 273 271 269 267 267 268 269 269 269 269 269 268 269 270 271 271 271 271 272 273 272 271 272 273 274 274 271 270 266 260 258 255 253 252 252 254
304 299 294 289 285 281 279 277 273 270 269 268 268 269 268 267 268 268 269 270 271 272 272 272 272 272 273 274 275 273 275 276 275 275 273 270 269 267 263 258 256 256 256
321 315 309 302 296 289 284 280 275 272 270 269 268 267 267 266 266 266 268 269 270 272 273 272 271 272 274 274 275 275 276 276 275 275 276 276 272 272 273 271 265 262 260
Height
5895 5895 5895 5895 5895 5895 5895 5895 5895 5894 5894 5894 5894 5893 5893 5893 5893 5893 5893 5893 5894 5894 5895 5896 5896 5897 5898 5898 5899 5900 5901 5902 5903 5904 5905 5906 5907 5909 5910 5912 5913 5915 5916
5892 5892 5892 5892 5892 5892 5892 5892 5892 5892 5892 5892 5892 5891 5891 5891 5891 5891 5891 5891 5891 5891 5892 5893 5894 5894 5895 5896 5897 5898 5899 5900 5901 5901 5902 5903 5905 5906 5907 5909 5910 5912 5913
5888 5888 5888 5888 5888 5888 5888 5889 5889 5889 5889 5889 5889 5889 5889 5889 5888 5888 5888 5888 5888 5888 5889 5890 5890 5891 5892 5893 5894 5895 5896 5897 5898 5899 5900 5901 5902 5903 5904 5905 5907 5908 5910
5883 5884 5884 5884 5884 5884 5885 5885 5885 5885 5885 5886 5886 5886 5886 5886 5886 5886 5886 5886 5886 5886 5886 5886 5887 5887 5888 5889 5890 5892 5893 5894 5895 5895 5896 5897 5898 5899 5901 5902 5903 5905 5906
5879 5879 5879 5879 5880 5880 5881 5881 5881 5881 5881 5881 5882 5882 5882 5882 5882 5882 5883 5883 5883 5883 5883 5883 5883 5884 5884 5885 5886 5887 5888 5889 5890 5892 5892 5893 5895 5896 5897 5898 5899 5901 5902
5874 5874 5874 5874 5875 5875 5876 5876 5876 5877 5877 5877 5878 5878 5878 5878 5878 5879 5879 5879 5879 5879 5879 5879 5879 5880 5880 5881 5882 5883 5884 5885 5886 5887 5888 5889 5890 5891 5893 5894 5895 5896 5898
5868 5869 5869 5869 5869 5869 5870 5871 5871 5872 5872 5873 5873 5874 5874 5874 5874 5874 5874 5874 5875 5875 5875 5875 5875 5875 5876 5877 5877 5878 5879 5880 5881 5882 5883 5884 5886 5887 5888 5889 5891 5892 5893
5861 5862 5862 5862 5863 5863 5864 5865 5865 5866 5867 5867 5868 5869 5869 5870 5870 5870 5869 5869 5869 5870 5870 5870 5871 5871 5871 5871 5872 5873 5874 5875 5876 5877 5878 5879 5880 5882 5883 5884 5886 5887 5888
5854 5854 5855 5855 5856 5856 5857 5858 5859 5860 5861 5862 5863 5864 5864 5864 5865 5865 5865 5864 5864 5864 5864 5864 5865 5865 5866 5867 5866 5867 5868 5869 5870 5871 5873 5874 5875 5877 5878 5879 5881 5882 5883
5846 5846 5847 5847 5848 5849 5849 5851 5852 5853 5855 5856 5856 5857 5858 5858 5859 5859 5859 5859 5859 5858 5858 5858 5858 5859 5860 5861 5861 5861 5863 5864 5865 5866 5867 5868 5870 5871 5872 5874 5875 5877 5878
5839 5839 5839 5840 5841 5841 5842 5843 5845 5846 5848 5849 5850 5851 5851 5852 5852 5853 5853 5853 5853 5853 5852 5853 5852 5852 5853 5855 5855 5855 5857 5858 5859 5860 5861 5862 5864 5865 5867 5868 5870 5871 5873
5830 5831 5831 5832 5833 5833 5834 5835 5837 5839 5841 5843 5843 5844 5845 5846 5846 5847 5847 5846 5846 5847 5847 5847 5846 5846 5846 5848 5849 5849 5850 5852 5853 5854 5855 5857 5858 5860 5861 5863 5864 5866 5867
5822 5822 5823 5824 5825 5826 5827 5829 5830 5832 5834 5836 5837 5838 5839 5840 5840 5840 5841 5840 5841 5841 5841 5841 5841 5841 5841 5842 5842 5843 5844 5845 5847 5848 5849 5851 5852 5854 5855 5857 5858 5860 5861
5814 5814 5815 5816 5817 5818 5819 5822 5824 5825 5828 5829 5831 5832 5833 5833 5834 5834 5834 5835 5835 5835 5835 5835 5835 5835 5835 5836 5836 5837 5838 5839 5841 5842 5843 5845 5846 5847 5849 5851 5852 5854 5855
5806 5806 5807 5809 5810 5811 5813 5814 5816 5819 5821 5823 5824 5826 5826 5827 5828 5828 5828 5829 5829 5830 5829 5829 5829 5829 5829 5829 5830 5830 5831 5833 5834 5836 5837 5838 5840 5841 5843 5844 5846 5848 5849
5799 5799 5801 5802 5803 5804 5806 5808 5811 5813 5815 5817 5818 5819 5820 5821 5822 5822 5822 5822 5823 5824 5824 5823 5823 5823 5823 5823 5823 5824 5825 5826 5828 5829 5831 5832 5833 5835 5836 5838 5840 5841 5843
5792 5794 5795 5797 5798 5799 5801 5804 5806 5808 5810 5811 5813 5813 5814 5815 5816 5816 5816 5816 5817 5817 5817 5817 5817 5817 5817 5817 5817 5817 5818 5820 5821 5823 5824 5826 5827 5829 5830 5832 5834 5835 5837
5789 5790 5791 5792 5794 5796 5798 5800 5801 5803 5805 5806 5807 5807 5808 5809 5810 5810 5810 5810 5811 5811 5811 5811 5810 5810 5811 5811 5811 5811 5812 5814 5815 5816 5818 5819 5821 5822 5824 5826 5827 5829 5830
5786 5787 5788 5789 5791 5792 5794 5795 5797 5798 5799 5800 5801 5802 5802 5803 5803 5803 5804 5804 5805 5805 5805 5805 5804 5804 5805 5805 5805 5805 5806 5807 5808 5809 5811 5813 5814 5816 5818 5819 5821 5822 5824
5784 5785 5786 5787 5788 5789 5789 5791 5791 5792 5793 5794 5795 5796 5796 5797 5797 5797 5798 5798 5799 5799 5799 5799 5799 5799 5799 5799 5799 5799 5799 5800 5801 5802 5804 5806 5808 5810 5811 5813 5815 5816 5818
5782 5782 5783 5784 5784 5784 5785 5785 5786 5787 5788 5788 5789 5790 5790 5791 5791 5791 5792 5792 5792 5792 5792 5792 5793 5793 5793 5793 5793 5793 5793 5794 5794 5796 5797 5799 5801 5803 5804 5806 5808 5809 5811
5779 5779 5779 5779 5779 5779 5780 5780 5780 5781 5782 5782 5783 5784 5784 5785 5785 5785 5786 5786 5786 5786 5786 5786 5786 5787 5787 5787 5787 5787 5787 5787 5788 5790 5790 5792 5793 5795 5797 5799 5800 5802 5803
5775 5775 5775 5774 5774 5774 5774 5774 5774 5775 5776 5777 5777 5778 5779 5779 5779 5779 5779 5779 5780 5780 5780 5780 5780 5780 5781 5781 5782 5782 5782 5781 5782 5783 5784 5785 5786 5787 5789 5791 5792 5794 5796
5772 5771 5770 5769 5768 5768 5768 5768 5768 5769 5770 5770 5771 5772 5773 5772 5772 5773 5773 5773 5773 5773 5774 5774 5774 5775 5775 5775 5776 5776 5776 5776 5777 5777 5778 5778 5779 5780 5782 5783 5784 5786 5787
5768 5766 5765 5764 5763 5763 5762 5762 5762 5762 5763 5764 5765 5766 5766 5766 5766 5766 5767 5767 5768 5768 5768 5768 5769 5769 5769 5769 5770 5770 5770 5771 5771 5771 5772 5773 5773 5774 5774 5775 5776 5778 5779
5764 5762 5761 5759 5758 5757 5757 5756 5756 5756 5757 5758 5759 5759 5759 5760 5760 5760 5761 5762 5762 5762 5763 5763 5763 5764 5764 5764 5764 5765 5765 5765 5766 5766 5766 5767 5767 5768 5768 5768 5769 5769 5770